Change the Weather History Date:

Friday, August 22, 2014

  Actual Average Record
Temperature  
Mean Temperature 71 °F -  
Max Temperature 79 °F 75 °F 90 °F (1976)
Min Temperature 64 °F 53 °F 41 °F (1958)
Cooling Degree Days 6    
Growing Degree Days 21 (Base 50)    
Moisture  
Dew Point 66 °F    
Average Humidity 91    
Maximum Humidity 100    
Minimum Humidity 64    
Precipitation  
Precipitation 0.02 in - - ()
Sea Level Pressure  
Sea Level Pressure 29.98 in    
Wind  
Wind Speed 3 mph (ENE)    
Max Wind Speed 12 mph    
Max Gust Speed -    
Visibility 8 miles    
Events Fog , Rain    
Averages and records for this station are not official NWS values.
T = Trace of Precipitation, MM = Missing Value Source: NWS Daily Summary

Daily Weather History Graph

Daily Weather History Graph

Search for Another Location

Airport or City:

Trip Planner

Search our weather history database for the weather conditions in past years. The results will help you decide how hot, cold, wet, or windy it might be!

Date:

Astronomy

Aug. 22, 2014 Rise Set
Actual Time 6:26 AM CDT 8:18 PM CDT
Civil Twilight 5:54 AM CDT 8:50 PM CDT
Nautical Twilight 5:14 AM CDT 9:30 PM CDT
Astronomical Twilight 4:30 AM CDT 10:14 PM CDT
Moon 3:45 AM CDT (8/22) 6:30 PM CDT (8/22)
Length of Visible Light 14h 56m
Length of Day
13h 51m
Waning Crescent, 7% of the Moon is Illuminated
Aug 22
Waning Crescent
Aug 25
New
Sep 2
First Quarter
Sep 8
Full
Sep 15
Last Quarter

Hourly Weather History & Observations

Time (CDT) Temp. Dew Point Humidity Pressure Visibility Wind Dir Wind Speed Gust Speed Precip Events Conditions
12:07 AM 68.0 °F 66.9 °F 96% 29.90 in 10.0 mi SE 3.5 mph - N/A   Overcast
12:53 AM 68.0 °F 66.9 °F 96% 29.90 in 6.0 mi Calm Calm - N/A   Overcast
1:20 AM 68.0 °F 66.9 °F 96% 29.91 in 5.0 mi Calm Calm - N/A   Overcast
1:53 AM 68.0 °F 66.9 °F 96% 29.89 in 4.0 mi ENE 3.5 mph - N/A   Overcast
2:53 AM 66.9 °F 66.9 °F 100% 29.91 in 2.5 mi NNE 3.5 mph - N/A   Overcast
3:11 AM 66.9 °F 66.9 °F 100% 29.91 in 1.5 mi ENE 3.5 mph - N/A   Overcast
3:21 AM 66.9 °F 66.9 °F 100% 29.91 in 2.0 mi NE 4.6 mph - N/A   Overcast
3:38 AM 66.9 °F 66.9 °F 100% 29.91 in 3.0 mi ENE 4.6 mph - N/A   Overcast
3:53 AM 66.2 °F 66.2 °F 100% 29.92 in 5.0 mi East 3.5 mph - N/A   Overcast
4:29 AM 68.0 °F 66.9 °F 96% 29.92 in 10.0 mi Calm Calm - N/A   Overcast
4:42 AM 68.0 °F 66.9 °F 96% 29.92 in 10.0 mi Calm Calm - N/A   Overcast
4:53 AM 66.9 °F 66.9 °F 100% 29.92 in 9.0 mi Calm Calm - N/A   Overcast
5:08 AM 66.9 °F 66.9 °F 100% 29.93 in 8.0 mi East 3.5 mph - N/A   Overcast
5:20 AM 66.9 °F 66.9 °F 100% 29.94 in 10.0 mi East 4.6 mph - N/A   Overcast
5:34 AM 66.9 °F 66.0 °F 97% 29.94 in 10.0 mi ESE 4.6 mph - N/A   Mostly Cloudy
5:53 AM 66.9 °F 66.0 °F 97% 29.94 in 10.0 mi Calm Calm - N/A   Scattered Clouds
6:06 AM 66.0 °F 64.9 °F 96% 29.96 in 8.0 mi Calm Calm - N/A   Mostly Cloudy
6:35 AM 66.9 °F 66.0 °F 97% 29.96 in 10.0 mi Calm Calm - N/A   Overcast
6:53 AM 66.2 °F 66.2 °F 100% 29.97 in 10.0 mi Calm Calm - N/A   Overcast
7:16 AM 66.9 °F 66.0 °F 97% 29.97 in 10.0 mi Calm Calm - N/A   Overcast
7:53 AM 68.0 °F 66.0 °F 93% 29.96 in 10.0 mi Calm Calm - N/A   Overcast
8:05 AM 68.0 °F 66.0 °F 93% 29.97 in 10.0 mi Calm Calm - N/A   Overcast
8:15 AM 68.0 °F 66.0 °F 93% 29.97 in 10.0 mi Calm Calm - N/A   Overcast
8:29 AM 68.0 °F 66.0 °F 93% 29.97 in 10.0 mi Calm Calm - N/A   Overcast
8:53 AM 70.0 °F 66.0 °F 87% 29.96 in 10.0 mi Calm Calm - N/A   Overcast
9:22 AM 71.1 °F 64.9 °F 81% 29.97 in 10.0 mi Variable 3.5 mph - N/A   Overcast
9:40 AM 70.0 °F 66.0 °F 87% 29.98 in 10.0 mi NW 3.5 mph - N/A   Overcast
9:53 AM 71.1 °F 66.0 °F 84% 29.97 in 10.0 mi West 4.6 mph - N/A   Overcast
10:21 AM 71.1 °F 66.0 °F 84% 29.99 in 10.0 mi West 4.6 mph - N/A   Overcast
10:46 AM 72.0 °F 66.0 °F 81% 29.99 in 10.0 mi NW 3.5 mph - N/A   Overcast
10:53 AM 73.0 °F 66.0 °F 79% 29.98 in 10.0 mi North 3.5 mph - N/A   Overcast
11:20 AM 72.0 °F 64.9 °F 78% 30.00 in 10.0 mi East 3.5 mph - N/A   Overcast
11:53 AM 73.9 °F 66.0 °F 76% 29.99 in 10.0 mi Calm Calm - N/A   Overcast
12:53 PM 75.9 °F 64.9 °F 69% 29.97 in 10.0 mi East 6.9 mph - N/A   Partly Cloudy
1:33 PM 77.0 °F 64.9 °F 66% 29.99 in 10.0 mi ENE 5.8 mph - N/A   Mostly Cloudy
1:53 PM 75.9 °F 64.9 °F 69% 29.98 in 10.0 mi ESE 5.8 mph - N/A   Overcast
2:10 PM 77.0 °F 64.9 °F 66% 29.99 in 10.0 mi SE 8.1 mph - N/A   Scattered Clouds
2:53 PM 78.1 °F 64.9 °F 64% 29.97 in 10.0 mi SE 8.1 mph - N/A   Partly Cloudy
3:53 PM 77.0 °F 66.0 °F 69% 29.97 in 10.0 mi SSE 5.8 mph - N/A   Mostly Cloudy
4:35 PM 75.0 °F 68.0 °F 79% 30.00 in 10.0 mi WNW 8.1 mph - 0.00 in Rain Light Rain
4:53 PM 73.9 °F 68.0 °F 82% 29.99 in 10.0 mi North 9.2 mph - 0.00 in   Overcast
5:02 PM 73.0 °F 68.0 °F 84% 30.00 in 10.0 mi North 11.5 mph - 0.00 in Rain Light Rain
5:53 PM 73.0 °F 69.1 °F 87% 30.00 in 10.0 mi NE 3.5 mph - 0.02 in   Mostly Cloudy
6:53 PM 73.9 °F 68.0 °F 82% 30.01 in 10.0 mi NW 5.8 mph - N/A   Partly Cloudy
7:53 PM 72.0 °F 69.1 °F 91% 30.01 in 10.0 mi NNW 6.9 mph - N/A   Partly Cloudy
8:53 PM 71.1 °F 69.1 °F 93% 30.01 in 10.0 mi Calm Calm - N/A   Clear
9:53 PM 66.9 °F 66.9 °F 100% 30.04 in 10.0 mi Calm Calm - N/A   Clear
10:32 PM 66.0 °F 64.9 °F 96% 30.06 in 1.5 mi Calm Calm - N/A   Clear
10:43 PM 66.0 °F 66.0 °F 100% 30.06 in 2.0 mi Calm Calm - N/A   Partly Cloudy
10:45 PM 66.0 °F 66.0 °F 100% 30.05 in 1.0 mi Calm Calm - N/A   Mist
10:49 PM 64.4 °F 64.4 °F 100% 30.05 in 0.2 mi Calm Calm - N/A Fog Fog
10:53 PM 66.0 °F 66.0 °F 100% 30.04 in 0.2 mi Calm Calm - N/A Fog Fog
11:12 PM 64.9 °F 64.9 °F 100% 30.05 in 0.5 mi Calm Calm - N/A Fog Fog
11:26 PM 66.2 °F 66.2 °F 100% 30.05 in 1.0 mi Calm Calm - N/A   Mostly Cloudy
11:43 PM 66.0 °F 66.0 °F 100% 30.05 in 2.5 mi Calm Calm - N/A   Scattered Clouds
11:51 PM 66.2 °F 66.2 °F 100% 30.05 in 7.0 mi Calm Calm - N/A   Partly Cloudy
11:53 PM 66.0 °F 66.0 °F 100% 30.04 in 7.0 mi Calm Calm - N/A   Partly Cloudy